Weather History for Mount Pleasant, MI

Change the Weather History Date:

Sunday, July 7, 2013

  Actual Average (KAMN) Record (KAMN)
Temperature  
Mean Temperature 76 °F -  
Max Temperature 83 °F 83 °F 103 °F (1988)
Min Temperature 69 °F 58 °F 45 °F (1983)
Cooling Degree Days 11    
Growing Degree Days 26 (Base 50)    
Moisture  
Dew Point 66 °F    
Average Humidity 73    
Maximum Humidity 87    
Minimum Humidity 53    
Precipitation  
Precipitation 0.00 in - - ()
Sea Level Pressure  
Sea Level Pressure 29.99 in    
Wind  
Wind Speed 3 mph (SW)    
Max Wind Speed 13 mph    
Max Gust Speed 16 mph    
Visibility 10 miles    
Events Rain    
Averages and records for this station are not official NWS values.
T = Trace of Precipitation, MM = Missing Value Source: NWS Daily Summary

Daily Weather History Graph

Daily Weather History Graph

Search for Another Location

Airport:

Trip Planner

Search our weather history database for the weather conditions in past years. The results will help you decide how hot, cold, wet, or windy it might be!

Date:

Astronomy

Jul. 07, 2013 Rise Set
Actual Time 6:05 AM EDT 9:22 PM EDT
Civil Twilight 5:29 AM EDT 9:57 PM EDT
Nautical Twilight 4:44 AM EDT 10:43 PM EDT
Astronomical Twilight 3:47 AM EDT 11:39 PM EDT
Moon 5:42 AM EDT (7/7) 8:43 PM EDT (7/7)
Length of Visible Light 16h 27m
Length of Day
15h 17m
Waning Crescent, 0% of the Moon is Illuminated
Jul 7
Waning Crescent
Jul 8
New
Jul 15
First Quarter
Jul 22
Full
Jul 29
Last Quarter

Hourly Weather History & Observations

Time (EDT) Temp. Heat Index Dew Point Humidity Pressure Visibility Wind Dir Wind Speed Gust Speed Precip Events Conditions
12:17 AM 74.3 °F - 66.2 °F 76% 30.01 in 10.0 mi WSW 4.6 mph - N/A   Clear
12:37 AM 73.8 °F - 65.8 °F 76% 30.01 in 10.0 mi West 3.5 mph - N/A   Clear
12:57 AM 73.4 °F - 65.1 °F 75% 30.02 in 10.0 mi West 3.5 mph - N/A   Clear
1:17 AM 72.7 °F - 64.8 °F 76% 30.01 in 10.0 mi Calm Calm - N/A   Scattered Clouds
1:37 AM 72.5 °F - 64.4 °F 76% 30.01 in 10.0 mi Calm Calm - N/A   Scattered Clouds
1:57 AM 71.6 °F - 64.2 °F 77% 30.00 in 10.0 mi Calm Calm - N/A   Clear
2:17 AM 70.0 °F - 64.6 °F 83% 30.00 in 10.0 mi Calm Calm - N/A   Clear
2:37 AM 69.1 °F - 65.1 °F 87% 29.99 in 10.0 mi Calm Calm - N/A   Clear
2:57 AM 69.8 °F - 64.9 °F 84% 29.99 in 10.0 mi Calm Calm - N/A   Clear
3:17 AM 69.8 °F - 64.9 °F 84% 29.99 in 10.0 mi SW 3.5 mph - N/A   Clear
3:37 AM 70.0 °F - 65.3 °F 85% 29.99 in 10.0 mi Calm Calm - N/A   Scattered Clouds
3:57 AM 70.5 °F - 65.3 °F 83% 29.98 in 10.0 mi Calm Calm - N/A   Scattered Clouds
4:17 AM 69.8 °F - 65.3 °F 86% 29.98 in 10.0 mi Calm Calm - N/A   Mostly Cloudy
4:37 AM 70.0 °F - 65.3 °F 85% 29.98 in 10.0 mi Calm Calm - N/A   Mostly Cloudy
4:57 AM 69.6 °F - 65.3 °F 86% 29.99 in 10.0 mi Calm Calm - N/A   Light Drizzle
5:17 AM 69.8 °F - 65.7 °F 87% 29.99 in 10.0 mi SW 3.5 mph - N/A   Overcast
5:37 AM 70.2 °F - 65.3 °F 85% 29.99 in 10.0 mi Calm Calm - N/A   Overcast
5:56 AM 70.7 °F - 65.3 °F 83% 29.99 in 10.0 mi Calm Calm - N/A   Overcast
6:17 AM 70.2 °F - 65.3 °F 85% 29.99 in 10.0 mi Calm Calm - N/A   Overcast
6:37 AM 69.8 °F - 65.3 °F 86% 30.00 in 10.0 mi Calm Calm - N/A   Overcast
6:57 AM 70.2 °F - 65.5 °F 85% 30.00 in 10.0 mi Calm Calm - N/A   Overcast
7:17 AM 70.3 °F - 65.7 °F 85% 30.00 in 7.0 mi WSW 3.5 mph - N/A   Overcast
7:36 AM 70.7 °F - 65.8 °F 85% 30.00 in 7.0 mi WSW 3.5 mph - N/A   Overcast
7:57 AM 70.7 °F - 66.2 °F 86% 30.01 in 7.0 mi Calm Calm - N/A   Overcast
8:17 AM 70.9 °F - 66.2 °F 85% 30.01 in 7.0 mi WSW 5.8 mph - N/A   Overcast
8:36 AM 71.8 °F - 66.4 °F 83% 30.01 in 7.0 mi SSW 4.6 mph - N/A   Overcast
8:57 AM 71.8 °F - 66.6 °F 84% 30.00 in 7.0 mi WSW 4.6 mph - N/A   Overcast
9:17 AM 72.7 °F - 66.9 °F 82% 30.01 in 7.0 mi SW 4.6 mph - N/A   Overcast
9:36 AM 73.2 °F - 66.9 °F 81% 30.01 in 7.0 mi WSW 5.8 mph - N/A   Mostly Cloudy
9:57 AM 74.7 °F - 67.3 °F 78% 30.01 in 10.0 mi WSW 4.6 mph - N/A   Mostly Cloudy
10:17 AM 75.2 °F - 66.6 °F 74% 30.01 in 10.0 mi SW 6.9 mph - N/A   Mostly Cloudy
10:37 AM 76.3 °F - 66.6 °F 72% 30.01 in 10.0 mi SW 5.8 mph - N/A   Mostly Cloudy
10:57 AM 76.8 °F - 67.6 °F 73% 30.01 in 10.0 mi SW 3.5 mph - N/A   Overcast
11:17 AM 77.2 °F - 67.6 °F 72% 30.01 in 10.0 mi South 4.6 mph - N/A   Mostly Cloudy
11:37 AM 77.7 °F - 68.2 °F 72% 30.01 in 10.0 mi WSW 4.6 mph - N/A   Mostly Cloudy
11:57 AM 78.1 °F - 67.1 °F 69% 30.01 in 10.0 mi WSW 4.6 mph - N/A   Overcast
12:17 PM 79.9 °F - 66.7 °F 64% 30.01 in 10.0 mi Calm Calm - N/A   Overcast
12:37 PM 80.1 °F 82.4 °F 67.3 °F 65% 30.00 in 10.0 mi Calm Calm - N/A   Scattered Clouds
12:57 PM 80.1 °F 82.6 °F 67.6 °F 66% 30.00 in 10.0 mi SSW 3.5 mph - N/A   Scattered Clouds
1:17 PM 80.8 °F 83.2 °F 66.9 °F 63% 29.99 in 10.0 mi South 6.9 mph - N/A   Clear
1:37 PM 81.5 °F 83.7 °F 66.2 °F 60% 29.99 in 10.0 mi South 6.9 mph - N/A   Clear
1:57 PM 82.2 °F 84.4 °F 66.0 °F 58% 29.98 in 10.0 mi SW 6.9 mph - N/A   Scattered Clouds
2:17 PM 82.6 °F 84.3 °F 64.8 °F 55% 29.98 in 10.0 mi SW 4.6 mph - N/A   Clear
2:37 PM 82.8 °F 85.5 °F 67.5 °F 60% 29.97 in 10.0 mi South 6.9 mph - N/A   Clear
2:57 PM 83.7 °F 87.5 °F 69.6 °F 62% 29.97 in 10.0 mi South 9.2 mph - N/A   Scattered Clouds
3:17 PM 81.7 °F 84.5 °F 68.2 °F 63% 29.96 in 10.0 mi South 6.9 mph - N/A   Scattered Clouds
3:37 PM 81.5 °F 84.6 °F 68.9 °F 65% 29.97 in 10.0 mi South 8.1 mph - N/A   Mostly Cloudy
3:57 PM 81.1 °F 84.2 °F 68.9 °F 66% 29.96 in 10.0 mi South 8.1 mph - N/A   Overcast
4:17 PM 81.3 °F 84.0 °F 67.8 °F 63% 29.96 in 10.0 mi SW 9.2 mph - N/A   Overcast
4:37 PM 82.2 °F 83.5 °F 63.7 °F 53% 29.95 in 10.0 mi SW 8.1 mph - N/A   Scattered Clouds
4:57 PM 81.1 °F 83.4 °F 66.4 °F 61% 29.96 in 10.0 mi SSE 8.1 mph - N/A   Clear
5:17 PM 81.3 °F 83.8 °F 67.3 °F 62% 29.96 in 10.0 mi South 12.7 mph 16.1 mph N/A   Clear
5:37 PM 80.4 °F 82.6 °F 66.2 °F 62% 29.96 in 10.0 mi South 9.2 mph - N/A   Clear
5:57 PM 79.9 °F - 67.5 °F 66% 29.95 in 10.0 mi South 6.9 mph - N/A   Clear
6:17 PM 80.2 °F 82.5 °F 66.7 °F 63% 29.95 in 10.0 mi South 5.8 mph - N/A   Scattered Clouds
6:37 PM 80.6 °F 83.2 °F 67.6 °F 65% 29.95 in 10.0 mi SW 5.8 mph - N/A   Clear
6:57 PM 80.2 °F 82.8 °F 67.8 °F 66% 29.95 in 10.0 mi SW 3.5 mph - N/A   Clear
7:17 PM 80.1 °F 82.6 °F 67.6 °F 66% 29.96 in 10.0 mi SW 4.6 mph - N/A   Scattered Clouds
7:37 PM 79.7 °F - 67.5 °F 66% 29.96 in 10.0 mi SW 4.6 mph - N/A   Scattered Clouds
7:57 PM 79.5 °F - 66.2 °F 64% 29.96 in 10.0 mi WSW 4.6 mph - N/A Rain Light Rain
8:17 PM 78.8 °F - 66.2 °F 65% 29.97 in 10.0 mi WSW 5.8 mph - N/A Rain Light Rain
8:37 PM 78.8 °F - 66.6 °F 66% 29.97 in 10.0 mi WSW 6.9 mph - N/A   Scattered Clouds
8:57 PM 78.6 °F - 66.4 °F 66% 29.97 in 10.0 mi WSW 6.9 mph - N/A   Clear
9:17 PM 77.7 °F - 66.7 °F 69% 29.98 in 10.0 mi WSW 5.8 mph - N/A   Clear
9:37 PM 77.4 °F - 65.3 °F 66% 29.98 in 10.0 mi WSW 5.8 mph - N/A   Clear
9:56 PM 77.0 °F - 65.3 °F 67% 29.99 in 10.0 mi WSW 4.6 mph - N/A   Clear
10:17 PM 76.1 °F - 65.5 °F 70% 29.99 in 10.0 mi WSW 3.5 mph - N/A   Clear
10:37 PM 75.7 °F - 65.3 °F 70% 30.00 in 10.0 mi Calm Calm - N/A   Clear
10:57 PM 74.7 °F - 65.5 °F 73% 30.00 in 10.0 mi West 3.5 mph - N/A   Mostly Cloudy
11:17 PM 74.5 °F - 65.7 °F 74% 29.99 in 10.0 mi Calm Calm - N/A   Overcast
11:37 PM 74.5 °F - 66.2 °F 75% 30.00 in 10.0 mi Calm Calm - N/A   Overcast
11:56 PM 74.7 °F - 65.3 °F 73% 29.99 in 10.0 mi Calm Calm - N/A   Overcast